Wind_Speed
18 18 18 17 16 15 15 15 15 15 14 13 12 12 11 11 11 10 10 10 10 10 9 8 9 9 9 10 11 10 10 9 9 9 9 10 11 11 10 10 10 9 8 9 8 7 9 9 8 8 6 6 5 4 3 3 5 5 5 6 6 6 6 7 8 10 9 8 9 8 8 8 8 9 10 10 10 10 10 11 11 12 14 13 12
18 17 17 17 18 16 15 15 15 15 14 14 13 12 12 11 10 11 11 11 11 11 10 10 10 9 9 10 10 11 10 9 9 10 10 10 10 10 10 9 9 9 9 10 9 8 9 9 8 7 5 5 5 3 3 4 5 6 6 6 6 4 4 6 7 9 10 8 8 8 8 8 8 9 10 9 10 11 11 11 12 11 11 11 11
17 16 15 16 16 16 15 15 15 15 14 14 14 13 13 11 11 11 12 12 13 12 11 11 11 10 10 10 11 12 11 10 10 10 10 10 10 9 10 10 9 9 10 10 8 9 9 8 8 6 4 5 6 5 5 5 5 5 5 4 4 3 5 7 8 8 9 9 8 8 8 8 7 7 8 9 9 11 11 12 12 11 11 12 12
16 15 15 15 14 14 15 15 14 14 14 14 14 14 13 13 12 12 13 13 13 12 11 11 12 12 12 12 12 13 12 10 10 10 10 10 9 9 11 11 9 8 9 9 8 7 8 8 7 6 5 7 8 7 6 5 5 5 5 4 4 5 6 7 7 7 9 9 8 8 7 8 8 8 9 10 11 11 11 12 12 10 11 12 13
17 16 15 15 14 14 14 14 14 13 13 13 14 13 13 13 13 13 14 13 12 11 11 12 13 13 12 13 13 13 12 11 11 10 9 9 9 10 11 12 10 9 8 8 8 8 9 9 8 8 7 7 7 6 4 5 6 5 4 4 5 5 6 6 6 7 9 9 9 9 10 10 10 9 10 12 12 12 12 14 14 12 12 14 15
16 15 14 15 15 15 13 13 13 13 13 13 13 13 13 13 14 13 13 14 13 13 13 13 14 14 13 13 13 13 12 12 12 11 10 10 11 11 10 11 11 10 10 10 9 10 10 9 8 8 8 7 7 6 6 7 7 5 5 6 7 6 6 6 6 7 10 10 11 11 10 9 10 9 9 10 12 12 14 16 16 15 16 17 19
16 15 14 13 14 16 15 14 14 13 13 13 12 13 13 13 14 15 14 14 14 14 14 14 14 14 13 13 13 13 12 12 12 12 11 12 12 11 10 11 11 10 9 9 9 9 10 9 9 9 8 8 7 6 6 6 5 5 6 7 6 6 5 6 6 6 8 9 9 9 9 9 10 10 10 11 12 13 15 17 17 16 16 17 20
15 16 16 14 12 14 15 16 16 14 12 12 12 13 13 13 13 14 15 15 14 15 14 13 14 15 14 13 13 13 13 13 13 13 12 12 12 11 11 12 11 10 9 9 9 10 11 10 10 9 9 8 7 7 7 7 5 6 7 6 6 6 7 7 7 7 8 9 9 9 9 11 12 13 13 12 12 14 15 16 16 15 15 18 22
14 16 17 16 14 12 13 14 15 15 14 13 12 12 13 13 13 13 14 15 14 14 15 14 15 15 14 13 13 13 13 14 14 14 13 13 13 12 11 12 12 11 11 11 12 10 10 11 11 10 10 10 10 9 8 8 9 8 8 8 9 9 9 10 10 10 10 10 11 11 11 12 13 13 13 12 13 15 15 14 14 16 19 22 24
14 14 15 15 15 16 16 15 15 17 18 17 16 14 13 13 13 13 14 15 15 14 15 15 15 15 15 13 12 12 15 15 15 14 13 13 13 12 12 13 12 12 12 13 12 10 10 10 10 10 11 11 11 10 10 11 12 12 12 12 12 11 11 11 11 11 11 11 12 12 12 13 13 13 13 13 14 16 17 17 19 21 23 24 24
19 17 15 15 16 18 19 18 18 19 18 19 19 18 17 16 14 13 13 14 15 14 14 14 14 14 14 14 13 14 16 16 16 14 11 12 13 12 13 14 12 12 14 13 13 12 11 10 9 10 12 12 12 12 13 13 12 11 11 10 9 9 9 10 10 10 11 11 11 11 11 12 13 13 14 16 17 18 19 20 21 22 23 24 26
22 22 21 19 17 18 19 20 21 21 20 20 20 20 21 21 19 18 15 13 14 14 14 15 15 14 13 13 15 17 17 16 15 14 12 12 12 11 12 13 11 11 12 13 13 12 10 10 10 10 10 11 12 13 13 12 11 9 8 7 7 8 9 10 10 10 10 11 12 12 12 13 14 15 17 18 19 20 21 22 23 25 26 27 30
19 21 22 22 21 21 21 21 21 21 19 20 20 21 22 23 23 23 22 18 15 15 16 17 17 15 13 13 14 16 16 15 16 15 13 13 13 12 13 13 12 11 11 11 11 11 11 12 12 10 8 7 9 12 12 10 10 9 8 8 8 9 9 10 11 11 12 13 13 12 11 13 15 17 18 18 20 22 24 26 28 29 30 31 33
13 15 16 18 20 22 23 23 23 22 20 20 21 21 22 22 22 25 26 24 20 17 17 18 18 18 17 14 14 14 14 13 14 16 14 14 15 15 14 13 13 13 11 11 12 13 13 13 12 11 10 7 8 11 11 10 10 10 10 9 10 10 12 12 12 12 13 13 13 13 12 12 15 18 19 20 22 26 28 30 30 30 30 29 29
11 12 13 14 16 19 21 22 23 23 23 24 24 23 22 22 22 23 25 25 24 21 19 18 19 19 18 17 17 17 14 12 12 14 14 15 16 16 15 14 14 12 12 14 15 15 14 14 13 13 13 11 9 10 11 11 12 12 12 12 12 12 13 14 13 13 13 14 14 15 15 16 18 20 21 22 25 27 28 28 27 25 24 23 22
10 11 12 13 15 17 18 19 19 19 19 22 24 24 22 22 22 23 23 23 24 24 21 19 20 20 19 18 19 18 16 14 13 13 13 15 16 17 17 16 14 12 13 16 17 15 14 14 14 15 15 14 11 10 11 13 13 14 15 15 15 14 13 14 14 14 15 15 16 17 18 20 21 22 22 24 25 25 23 23 21 19 19 19 19
6 7 8 10 13 15 17 18 18 18 17 18 21 22 23 24 25 25 24 24 24 24 21 20 20 20 19 18 19 19 18 16 15 14 15 16 17 18 17 15 13 13 15 17 17 16 15 14 14 15 16 15 13 13 14 14 15 16 16 16 17 15 13 14 16 17 17 17 18 19 20 21 22 23 23 22 20 18 17 17 17 18 19 19 20
4 1 2 3 4 7 9 12 14 16 18 19 19 20 22 24 26 26 26 26 26 26 24 22 21 20 20 20 21 22 20 18 16 15 16 18 18 18 17 16 15 15 16 17 16 17 15 13 12 14 15 16 17 17 17 17 17 18 17 17 17 14 14 17 19 19 20 21 20 21 21 22 21 21 18 15 13 13 14 15 16 17 18 19 21
10 7 5 5 3 2 1 2 4 8 13 16 18 20 21 22 23 24 24 24 26 27 27 26 24 22 21 22 23 23 23 21 20 18 18 20 19 19 19 20 19 18 18 17 16 16 15 12 11 12 15 17 18 18 18 18 18 19 18 18 17 15 17 20 20 21 22 22 22 22 20 18 17 15 12 10 11 11 12 14 15 16 18 19 20
12 9 8 8 6 5 6 6 5 3 1 5 10 14 18 19 19 21 22 20 21 23 25 26 26 24 23 23 24 25 24 24 23 21 20 20 19 19 21 22 20 19 18 17 16 16 15 14 13 13 15 17 17 17 17 17 17 18 17 17 17 17 18 20 19 20 21 20 19 17 14 13 12 9 8 9 11 11 11 12 14 16 18 19 18
11 9 9 9 8 7 7 7 7 8 7 4 1 4 8 10 9 10 13 14 15 17 20 22 25 26 25 25 25 25 25 25 25 24 22 21 20 19 20 20 19 18 17 16 15 15 14 13 14 14 15 15 16 17 17 16 16 15 15 16 17 18 19 19 18 17 17 17 15 11 9 9 8 7 6 6 8 10 11 11 14 16 17 17 17
10 10 11 11 10 9 8 8 9 9 8 7 6 4 2 1 2 2 1 4 8 11 14 17 20 22 24 25 26 26 26 26 26 24 22 22 22 20 19 19 18 18 17 16 16 16 14 15 17 18 16 16 17 17 17 16 16 16 17 17 17 17 17 16 15 15 14 13 11 9 8 6 5 4 5 6 7 10 13 14 14 13 12 13 14
10 10 11 11 10 9 8 8 8 8 8 8 8 8 8 7 7 6 5 3 3 7 9 11 13 15 18 20 21 23 25 25 25 24 22 20 20 18 17 17 17 17 17 17 17 15 15 18 20 20 18 18 19 19 19 19 18 18 16 15 14 14 13 12 12 12 11 10 9 8 7 5 4 5 8 9 11 14 15 15 14 12 11 11 12
10 10 10 11 11 11 10 9 9 9 9 9 11 11 9 8 9 9 8 7 4 4 4 5 6 9 10 11 12 14 16 18 20 20 19 17 16 15 14 14 15 15 16 16 15 12 13 17 20 20 20 20 19 19 19 18 16 14 12 10 10 10 10 10 11 10 9 9 9 8 6 5 7 10 11 13 15 16 17 16 15 15 13 13 15
9 9 9 9 10 11 11 10 10 11 10 9 10 11 9 7 9 11 10 8 6 6 6 5 3 2 3 3 3 5 6 8 10 12 13 13 13 13 12 11 12 12 13 14 13 12 12 15 17 19 19 18 16 14 13 12 10 9 9 10 10 9 9 9 8 8 8 7 7 6 5 6 9 11 12 13 15 15 14 14 15 15 14 15 17
8 8 8 8 9 8 7 9 11 11 11 10 9 10 9 8 10 11 10 7 7 8 7 8 8 6 3 5 4 3 3 3 3 5 7 9 11 11 10 9 9 9 10 10 11 11 11 12 14 16 17 15 13 11 9 8 9 9 9 9 9 7 6 4 5 6 8 6 4 4 5 7 9 9 9 10 12 12 11 13 15 16 16 17 17
6 7 7 7 9 10 9 8 8 7 7 7 7 7 7 7 7 8 8 7 7 7 5 5 7 4 1 3 5 3 3 5 5 4 5 4 5 6 7 7 7 7 7 8 7 8 9 10 12 13 14 13 11 8 7 7 7 7 7 7 6 5 3 3 3 9 11 8 7 7 8 10 11 11 10 10 10 12 13 14 15 17 18 18 17
8 9 9 7 6 7 8 6 5 3 5 5 1 2 1 3 4 3 3 4 6 7 5 5 6 2 2 1 3 2 1 3 4 4 3 1 0 1 3 4 3 4 5 5 6 6 7 8 9 9 8 9 8 6 5 6 6 6 5 5 4 4 3 2 6 12 12 9 9 10 10 11 10 9 9 9 10 12 14 14 15 17 17 17 18
9 9 8 7 7 6 5 3 3 4 2 2 3 4 4 2 1 2 2 2 4 5 4 5 6 3 2 2 2 3 3 1 1 1 1 3 4 4 5 6 6 6 6 5 6 6 5 5 4 3 3 4 3 3 4 6 6 6 6 5 4 2 5 8 10 10 8 8 9 10 9 8 7 6 7 8 9 12 14 15 16 16 16 16 16
7 4 2 4 6 6 5 3 4 5 5 5 4 2 2 3 4 2 0 2 4 4 4 5 6 5 4 4 5 6 6 6 6 6 8 10 9 9 9 9 8 8 8 7 6 4 2 2 2 3 4 4 3 2 2 1 0 1 3 4 4 7 9 11 11 10 8 8 9 10 10 10 9 9 10 12 14 16 16 15 15 14 14 15 15
6 4 6 8 9 8 5 3 6 7 6 3 3 3 4 6 6 5 4 3 4 6 6 7 9 9 9 9 9 8 9 10 11 12 12 13 12 11 10 9 8 7 7 5 3 2 4 4 4 2 2 1 1 1 2 3 3 5 4 2 4 6 9 10 10 9 9 10 11 12 13 13 13 13 14 16 18 18 17 15 14 13 13 14 15
5 5 6 6 9 10 7 4 5 7 7 4 0 2 5 8 8 6 5 5 5 4 5 7 9 10 11 11 11 10 11 11 12 13 12 12 11 10 8 7 6 5 3 2 2 5 6 3 1 3 5 3 1 3 5 4 1 6 10 6 5 5 7 9 8 7 9 11 12 13 13 14 14 15 16 16 17 17 16 15 15 15 15 15 15
4 4 3 4 7 9 8 5 4 5 5 5 3 3 2 4 6 6 7 7 7 6 5 5 6 7 8 9 10 10 11 11 11 10 10 9 8 7 5 4 3 2 2 1 5 6 6 3 0 2 3 3 4 5 6 5 2 3 9 9 2 3 6 8 7 7 8 11 12 13 13 14 14 14 14 14 14 14 14 14 14 14 15 15 16
4 3 3 2 3 2 2 2 3 4 5 5 5 4 2 1 2 5 8 9 9 9 8 8 9 8 7 7 8 8 8 9 9 9 8 7 5 4 2 2 3 4 5 4 6 6 5 3 3 4 3 4 5 4 5 6 4 4 7 10 8 8 9 8 8 9 10 12 13 13 13 12 11 11 12 12 12 13 13 13 13 14 15 16 18
5 4 3 2 2 2 1 3 3 4 4 5 5 4 1 1 0 3 5 6 7 10 11 10 10 11 10 10 9 8 7 6 6 6 6 5 4 2 1 4 6 8 7 4 5 5 3 6 8 8 6 4 5 6 6 7 6 5 5 8 10 12 13 10 9 11 12 11 11 10 10 10 10 10 11 11 11 12 13 13 14 14 15 16 18
5 4 4 4 3 2 2 3 3 3 2 3 5 6 3 0 1 1 3 3 3 5 7 9 10 11 13 13 11 8 6 5 4 4 3 1 1 3 5 7 8 7 3 2 3 4 8 10 9 9 8 7 7 8 8 9 9 7 5 6 10 12 12 11 11 11 10 8 7 8 9 8 8 9 10 10 11 11 11 12 13 14 15 17 20
5 4 4 5 4 2 0 1 2 3 2 1 2 3 2 0 1 1 1 2 1 1 3 8 11 11 11 11 8 7 8 7 8 9 7 6 7 7 6 7 6 1 3 6 6 6 8 9 10 10 10 9 9 9 9 9 9 8 7 8 9 8 8 7 8 9 8 6 5 7 8 7 8 9 10 10 12 13 14 15 17 18 20 21 23
9 8 6 5 4 3 2 2 2 2 2 2 2 2 1 0 1 1 1 1 2 2 1 3 6 4 4 7 8 5 5 5 7 7 4 5 8 6 4 5 3 3 6 7 7 7 5 5 8 11 11 11 10 9 8 7 7 7 8 8 6 5 5 5 5 7 8 7 8 10 12 12 13 15 15 15 15 17 18 20 22 23 23 23 21
10 9 6 5 4 3 3 2 2 2 3 2 1 1 1 1 0 1 0 1 2 2 1 1 5 7 8 11 13 11 8 2 6 6 0 5 5 5 7 7 6 3 4 6 8 8 5 3 4 7 8 7 6 6 6 5 5 6 6 5 5 5 5 6 8 10 10 10 11 13 15 16 18 19 19 19 20 21 22 23 23 22 21 21 20
9 9 8 7 4 3 3 2 2 3 3 2 1 0 1 1 1 1 1 1 1 2 1 4 9 11 12 15 17 17 13 5 4 5 4 7 7 9 11 10 9 6 3 4 8 9 8 6 5 3 2 1 3 5 6 5 5 5 4 5 6 6 6 7 9 11 12 13 15 16 18 19 20 19 19 20 21 21 21 21 20 20 20 20 21
8 8 9 7 5 4 2 1 2 3 3 2 2 2 1 1 1 1 1 1 1 1 1 5 11 13 14 17 19 18 14 10 7 3 4 7 9 10 11 13 13 12 7 5 7 9 9 8 7 5 2 1 3 6 7 5 4 4 3 3 3 4 5 5 7 10 13 16 17 18 19 20 20 20 20 20 19 19 19 18 19 19 19 19 20
8 8 9 8 6 4 1 2 4 5 3 0 1 2 3 3 3 3 3 3 3 2 2 5 12 15 15 17 19 15 7 6 6 0 3 4 7 9 9 9 10 12 12 10 7 7 7 5 3 2 2 2 4 6 6 5 7 9 9 8 8 6 6 7 10 13 15 17 19 19 20 20 20 20 19 19 18 17 17 17 17 17 17 17 18
11 9 8 7 5 3 4 5 6 4 1 1 3 4 4 4 4 4 4 3 4 5 4 5 10 14 16 17 16 9 2 4 3 3 5 6 3 4 5 4 3 4 7 6 5 7 9 7 2 2 3 3 5 5 4 4 7 9 9 8 8 6 7 10 14 16 18 19 19 19 18 17 17 17 17 17 17 17 16 16 16 16 16 17 18
13 11 10 9 7 7 8 8 6 5 5 7 9 9 7 6 6 4 4 4 5 6 6 5 7 11 14 15 12 6 0 3 5 5 7 8 6 5 6 8 7 5 3 2 3 8 10 8 4 3 2 4 8 10 9 8 6 5 5 6 8 8 10 13 14 16 18 18 17 16 15 15 16 17 17 17 16 16 15 14 14 15 16 17 17
15 13 11 9 9 8 8 7 7 7 7 7 7 6 7 10 10 6 4 6 6 7 7 7 9 11 12 9 6 4 3 3 4 4 3 3 6 9 12 12 13 12 9 4 3 4 3 3 3 4 6 9 11 12 10 7 4 4 5 8 10 11 13 14 15 17 18 18 17 16 16 17 17 17 16 16 15 15 14 14 14 15 16 16 17
17 13 10 10 10 10 8 6 8 9 7 5 4 4 6 9 9 5 5 8 11 12 12 9 8 10 10 7 5 4 4 4 4 4 3 2 5 10 13 12 12 11 8 5 3 3 2 3 5 6 9 11 10 8 5 2 1 4 9 12 12 12 14 15 17 17 18 18 18 17 17 17 17 16 15 15 15 14 14 14 14 15 15 16 17
14 11 10 11 11 11 11 10 10 9 7 5 4 4 6 9 10 8 9 13 17 16 14 10 7 7 8 7 6 5 5 4 4 5 4 4 7 10 9 6 4 4 4 3 3 2 3 5 7 8 8 6 3 3 3 1 0 5 12 14 12 13 14 15 16 16 15 15 15 16 16 16 16 15 15 15 14 14 14 15 15 15 16 16 17
11 11 12 12 12 12 11 10 10 10 9 6 4 4 5 8 9 9 10 12 12 10 9 8 7 7 7 7 6 6 5 5 5 5 4 4 7 9 6 3 2 3 2 2 3 3 3 4 5 5 4 2 1 2 2 0 1 8 15 15 13 14 14 13 13 13 13 12 13 14 15 15 15 15 15 14 14 13 14 14 14 14 15 16 17
13 13 13 12 11 10 10 9 9 8 7 6 5 5 6 8 9 8 9 9 8 7 7 7 7 7 7 7 7 7 6 6 6 6 5 5 6 6 4 4 4 4 3 2 2 3 3 3 3 2 2 3 3 3 1 1 5 12 15 14 13 12 11 10 10 11 12 12 13 14 14 14 14 14 14 14 12 12 13 13 14 15 16 17 17
18 17 16 12 10 10 11 11 10 8 7 7 7 7 8 10 10 8 7 8 8 8 8 7 7 7 8 8 8 7 6 6 6 5 5 5 5 5 5 5 4 4 4 4 4 3 3 3 3 3 2 3 3 3 3 5 9 13 14 13 11 10 9 9 10 11 11 12 13 14 14 13 14 14 14 13 12 12 13 14 15 17 18 19 19
17 17 15 13 12 11 11 12 13 11 9 9 9 10 10 11 11 9 8 8 8 8 8 8 8 8 7 7 7 7 7 7 7 6 5 6 5 5 6 6 5 4 4 4 4 3 3 3 3 2 2 2 3 3 4 7 10 12 11 10 10 9 9 9 9 10 11 11 12 12 13 13 14 14 14 13 13 13 14 15 16 17 18 19 20
Wind_Direction
185 189 190 188 194 204 204 203 201 196 202 213 212 210 210 204 207 212 209 206 209 219 223 219 222 223 217 214 216 223 227 224 226 224 223 231 232 233 239 236 230 231 236 239 227 222 245 258 258 250 246 250 235 207 224 269 279 272 255 249 246 249 263 268 284 303 311 312 313 320 320 315 318 318 316 318 324 326 323 325 337 350 351 342 327
185 190 190 189 194 198 201 204 205 200 202 210 211 215 218 208 207 214 209 211 218 214 213 221 223 217 215 215 215 224 233 232 231 228 226 232 232 233 241 241 235 235 240 245 239 232 242 255 262 260 258 271 271 241 238 261 261 261 265 263 252 248 279 290 292 300 308 314 317 323 329 326 319 316 319 323 328 332 331 330 331 335 338 331 324
185 189 190 193 196 197 200 204 206 205 204 210 212 213 218 214 213 218 217 223 228 214 204 216 219 215 218 217 216 227 233 232 238 239 234 234 230 228 234 237 242 250 249 248 247 243 246 253 261 265 260 271 276 260 241 241 245 261 284 289 281 281 289 293 298 306 312 315 316 318 320 321 320 320 325 330 329 327 326 324 323 328 332 330 333
187 185 186 193 196 199 203 204 208 211 208 211 216 215 217 217 215 219 224 232 234 217 206 215 218 218 220 217 219 228 229 230 240 239 233 231 227 225 230 233 242 255 256 251 250 252 255 258 262 263 249 242 250 250 242 240 245 261 274 279 286 280 271 276 288 301 308 314 322 331 338 343 348 343 334 332 331 328 329 329 333 343 339 327 328
192 189 189 192 193 199 206 207 210 215 212 214 219 219 220 222 223 222 225 233 235 221 215 218 221 226 230 224 226 230 226 229 236 233 228 233 236 233 231 233 238 246 251 248 243 244 248 249 250 254 250 245 249 250 249 252 251 250 257 268 273 270 278 292 298 304 315 326 334 345 358 358 349 338 329 328 329 330 332 338 344 346 330 320 328
191 192 199 201 199 201 204 207 212 216 218 220 222 224 224 224 226 227 225 228 231 230 229 224 219 229 236 231 230 232 229 229 232 230 225 228 240 243 235 235 240 241 243 244 242 244 248 250 250 249 247 247 248 243 240 248 253 255 263 270 270 272 287 302 310 318 322 326 330 339 347 337 321 319 323 326 331 337 339 339 338 332 324 324 332
190 190 195 201 209 211 207 206 209 213 219 224 226 229 231 229 229 230 229 227 226 231 237 233 226 234 241 236 231 232 236 238 234 231 225 223 234 244 240 240 248 249 248 247 247 252 259 260 259 260 264 261 250 244 250 256 256 258 262 264 267 271 274 281 292 298 297 301 308 314 314 310 316 331 338 337 338 338 335 330 326 325 325 325 326
200 201 200 200 212 223 222 216 213 211 214 222 228 231 234 236 234 232 232 231 227 229 234 234 233 239 246 245 236 230 236 243 239 233 229 223 225 234 239 239 242 250 257 254 247 244 250 257 257 256 261 265 258 251 258 262 252 252 260 263 264 265 269 279 287 286 286 292 297 301 308 321 335 340 339 339 336 331 329 327 325 325 320 316 317
203 206 207 207 210 221 225 220 220 220 214 214 221 229 237 242 242 238 235 232 230 229 230 230 233 241 249 249 241 232 232 238 242 241 237 229 221 226 239 240 236 240 245 250 249 241 242 254 259 254 249 252 255 251 250 259 261 259 260 265 272 279 286 294 299 300 301 301 305 314 319 323 330 332 331 334 330 323 322 321 315 310 307 309 313
210 210 208 208 210 216 219 219 227 231 225 220 218 219 226 234 240 241 237 234 233 232 231 230 231 241 250 249 241 233 231 233 240 245 245 238 224 219 231 239 239 240 242 248 255 251 247 251 256 261 262 263 268 273 274 276 275 272 271 276 284 291 297 301 302 303 301 298 302 311 314 315 319 319 320 324 318 308 304 305 304 305 308 311 315
228 226 218 212 213 219 221 221 227 231 232 232 230 228 230 232 234 237 237 232 231 232 233 231 230 235 244 246 242 240 238 235 236 240 244 244 238 230 232 235 237 244 246 249 253 255 256 259 260 263 267 270 272 274 277 280 278 276 278 281 287 294 302 306 308 309 304 299 299 301 301 304 307 309 312 312 306 303 305 309 310 312 314 315 315
229 229 228 226 224 223 222 222 224 228 233 237 237 237 240 241 241 246 251 246 237 231 227 226 229 235 243 249 246 243 242 240 239 238 238 243 251 253 245 237 237 248 252 252 257 260 262 268 271 267 266 270 269 268 275 283 283 284 287 287 295 304 311 312 312 311 306 301 298 297 297 300 303 307 309 306 304 307 310 312 312 311 310 309 309
227 228 231 233 232 229 227 226 225 228 232 236 236 237 240 242 241 243 248 253 251 244 234 229 229 231 239 253 252 244 242 242 240 237 236 238 245 254 257 252 249 256 262 263 263 259 254 257 264 267 263 256 255 262 274 282 280 281 288 295 302 303 304 305 302 299 299 298 293 290 294 301 304 305 303 303 307 310 310 310 309 307 305 305 307
230 231 233 235 235 233 233 233 233 232 232 234 237 237 237 238 236 236 239 242 244 243 239 236 233 228 231 247 260 255 249 245 241 240 239 234 231 236 248 256 253 254 264 271 263 251 246 246 250 261 262 249 244 255 263 273 279 283 289 297 301 300 301 304 302 299 301 300 292 288 289 290 291 293 296 301 306 308 308 308 309 307 307 307 309
232 233 235 236 236 235 236 238 241 242 241 240 241 241 238 235 234 236 237 236 236 235 234 236 239 236 234 240 252 257 253 246 243 243 238 232 229 232 244 255 256 253 258 265 265 263 259 254 255 264 266 259 253 250 251 261 270 274 280 287 291 295 298 299 298 297 297 294 290 289 290 289 289 292 295 299 302 304 305 305 307 310 311 312 313
228 234 239 241 242 243 244 245 245 246 244 240 238 238 237 235 233 234 233 231 231 232 232 236 241 244 242 240 243 251 254 251 246 242 237 236 238 241 248 257 260 255 251 257 266 273 271 266 263 261 257 254 255 256 256 257 259 263 274 281 283 286 289 289 290 290 290 290 291 291 293 292 290 290 293 297 302 304 304 305 310 314 313 311 311
212 222 231 241 247 248 250 250 247 245 243 240 237 236 235 234 234 235 234 230 228 229 232 237 240 243 245 245 244 248 253 252 246 240 237 240 243 245 246 249 250 248 248 254 262 267 269 271 264 254 251 254 258 262 264 263 263 269 276 281 283 285 286 284 286 287 287 288 290 290 290 289 288 290 295 300 305 309 310 314 319 320 316 314 313
70 71 181 221 251 252 252 251 247 243 240 239 240 240 238 237 238 239 241 239 238 237 237 239 243 245 244 244 244 247 250 249 246 244 240 237 239 243 244 242 241 244 249 255 260 262 266 272 268 258 258 261 260 261 266 268 270 274 276 279 282 284 280 280 284 288 289 290 291 291 291 292 294 297 301 311 321 321 320 321 321 321 319 318 317
78 60 63 64 55 46 6 294 253 245 242 241 242 244 244 244 242 242 243 243 242 243 242 241 244 245 243 242 243 245 248 248 247 248 247 241 241 247 250 250 249 250 253 257 261 263 263 265 265 261 262 263 263 265 269 270 272 274 276 278 279 278 278 281 287 290 291 293 295 296 298 301 303 307 320 336 333 319 314 317 319 321 323 321 319
111 108 94 75 65 63 58 55 55 41 308 242 243 246 249 251 246 238 235 234 234 238 241 242 243 243 242 242 242 242 243 244 244 245 246 244 244 248 252 253 253 253 253 254 256 258 258 259 261 260 261 263 265 268 270 271 272 273 275 277 277 278 280 285 289 292 293 297 298 301 307 311 313 327 348 346 329 314 311 315 315 317 321 322 323
105 111 97 82 78 80 72 66 64 56 47 47 21 249 253 264 265 244 232 227 224 228 233 237 239 240 239 240 242 242 241 240 240 241 242 242 242 247 250 251 251 252 250 249 249 249 250 254 258 260 263 265 267 270 272 270 269 272 276 279 281 282 284 287 289 292 297 302 303 306 313 318 329 349 348 331 326 318 307 304 308 314 323 329 331
88 84 78 76 77 77 69 68 82 81 61 49 53 57 56 12 12 11 248 222 218 224 231 235 237 239 240 242 244 243 241 239 238 237 236 237 239 244 248 248 249 250 247 245 248 250 252 255 257 259 263 267 270 273 273 273 278 284 286 286 285 285 285 287 291 298 303 304 299 302 316 334 355 350 303 280 279 282 285 293 303 311 323 328 324
83 84 84 80 73 69 64 64 80 88 75 71 77 74 70 70 71 72 77 98 177 212 223 227 230 234 237 236 234 233 233 235 236 235 234 237 238 239 240 240 242 244 245 247 251 252 252 254 258 262 266 270 271 273 274 278 284 287 288 286 285 284 285 288 294 302 304 299 295 309 331 341 316 275 268 268 270 278 293 305 308 308 311 307 299
81 79 78 73 63 58 59 63 69 69 62 70 85 88 81 70 67 68 70 78 105 154 174 187 206 219 225 225 223 225 225 224 225 228 232 236 237 234 233 235 238 241 243 248 253 251 246 249 257 264 267 268 271 272 273 276 279 282 284 283 282 288 292 293 295 298 295 291 300 320 341 330 301 287 282 281 283 290 302 306 303 303 304 295 289
102 95 89 81 66 48 39 40 50 54 47 49 75 90 91 86 78 69 61 57 66 82 84 77 88 170 185 177 188 211 218 215 215 217 220 225 229 230 229 231 236 239 242 247 252 249 242 244 250 256 260 264 268 268 266 269 274 280 284 286 292 301 302 299 301 297 288 294 317 336 333 308 298 296 299 305 309 313 315 311 307 306 303 297 298
101 104 105 106 101 87 64 48 49 52 45 41 58 80 92 104 104 93 85 76 65 68 68 55 47 52 85 104 109 140 165 156 166 181 186 198 210 214 212 210 217 227 234 239 245 246 243 241 243 246 251 254 258 263 270 279 284 284 285 289 294 295 296 319 331 306 293 299 313 304 286 279 282 290 305 320 327 325 318 311 309 310 312 314 318
85 90 97 114 129 133 127 103 86 96 104 88 71 76 101 128 134 120 116 117 97 77 68 66 65 59 59 83 77 75 102 99 99 118 140 166 190 194 194 197 201 212 218 221 229 238 240 241 244 249 253 257 261 269 283 294 298 298 297 298 298 291 307 2 316 277 276 279 270 265 273 283 292 304 314 319 320 315 308 305 308 314 323 330 332
83 70 61 70 99 121 124 105 81 109 147 140 94 340 30 126 134 123 118 131 122 108 109 131 136 158 270 50 70 42 42 80 85 106 128 131 230 214 219 222 222 227 227 225 233 243 253 264 268 269 275 281 283 286 301 323 339 347 348 349 351 334 308 260 253 260 268 281 283 281 289 298 309 325 333 331 325 312 303 306 315 323 331 335 334
71 56 50 52 62 77 93 98 73 47 11 319 300 296 304 335 63 121 130 146 148 141 153 178 184 199 232 220 239 291 290 304 21 29 342 322 316 304 296 293 289 284 277 271 270 274 277 277 276 293 321 324 327 327 334 348 0 7 9 11 6 301 237 226 236 254 272 292 292 282 281 291 308 324 322 314 304 294 295 309 324 331 335 335 331
75 67 129 141 123 101 87 109 126 94 44 2 356 5 2 7 13 12 227 219 220 222 223 224 231 243 250 252 269 277 270 268 277 287 298 305 305 304 302 300 298 300 298 294 293 288 252 185 94 39 352 349 11 2 312 292 285 22 14 349 298 251 234 233 241 252 264 278 283 279 278 285 297 307 306 299 294 295 305 320 329 332 333 330 328
136 180 205 193 174 154 128 141 162 148 127 85 25 34 48 36 18 0 344 307 267 258 255 251 253 260 266 270 275 274 268 267 272 278 287 296 300 302 302 301 301 302 301 301 298 209 173 141 97 88 213 195 38 274 199 184 210 203 174 70 348 280 253 248 248 249 256 264 273 282 290 293 297 300 300 299 302 308 317 324 327 326 325 325 325
168 221 234 213 199 204 214 225 216 194 175 165 156 27 26 11 357 352 359 358 340 308 283 272 268 269 271 273 273 272 270 269 273 280 286 292 296 299 302 306 308 306 308 301 208 175 160 142 156 198 180 163 212 226 191 165 176 202 189 161 51 357 289 277 274 264 261 267 275 285 293 296 297 297 299 306 316 324 327 329 329 327 325 324 322
179 225 239 203 200 217 233 241 233 217 199 184 159 119 59 356 343 351 2 3 360 353 343 327 308 294 288 285 280 277 274 272 274 277 280 284 289 292 299 311 315 330 2 178 187 166 131 104 152 198 181 208 236 226 209 212 244 227 213 214 244 339 300 294 303 293 272 271 277 284 288 292 297 302 310 320 327 327 326 326 327 327 325 323 318
193 214 232 211 184 197 226 220 215 222 222 203 163 117 90 263 300 349 353 355 357 353 352 352 342 330 322 314 305 296 286 277 272 269 269 274 279 286 312 15 49 48 57 110 147 135 107 120 176 173 186 230 230 214 211 221 234 254 244 243 258 275 275 284 308 307 288 281 285 289 294 301 309 317 323 326 323 317 316 317 318 318 316 315 313
177 185 194 171 144 156 226 245 245 249 242 217 186 151 126 239 113 9 341 336 344 343 340 340 341 339 339 336 329 325 318 303 287 274 268 269 273 274 118 101 78 52 49 97 132 131 155 186 182 170 171 195 207 204 206 204 205 224 246 246 253 262 265 270 285 292 294 300 310 315 317 321 322 320 319 317 312 311 316 318 316 314 312 309 305
157 156 164 167 177 218 261 286 294 297 295 245 209 192 186 213 96 49 339 329 340 338 327 324 332 340 339 332 333 349 6 16 25 18 351 330 139 145 138 116 83 51 39 170 183 206 217 214 205 192 188 194 200 205 213 217 214 217 237 255 262 268 272 272 276 287 302 321 332 327 322 320 313 306 304 302 299 300 305 305 301 299 298 297 296
150 166 170 163 164 186 228 10 333 318 325 298 210 183 150 93 204 178 1 349 336 301 311 320 331 343 340 327 334 22 51 59 61 52 46 71 103 120 123 107 86 61 214 197 194 208 219 224 227 221 215 221 226 223 226 233 232 229 237 253 267 283 295 300 303 307 311 308 293 283 277 270 269 273 277 281 283 283 283 285 287 291 294 297 300
180 194 187 161 154 160 148 97 51 29 41 55 58 64 67 343 304 288 242 277 309 321 349 325 319 320 303 294 304 344 32 54 63 56 60 106 118 128 136 117 107 254 243 221 213 217 224 239 245 242 240 245 253 253 249 249 253 254 256 260 273 299 318 322 310 293 281 267 261 264 262 258 259 262 266 273 280 284 287 292 298 302 305 306 309
194 197 187 173 172 160 139 128 108 85 85 87 81 34 281 198 92 349 276 305 322 313 140 250 262 252 255 273 281 287 292 339 68 61 167 189 176 208 212 174 148 181 246 244 233 226 225 246 269 268 260 256 269 291 290 278 282 292 295 299 309 313 307 296 283 276 270 262 259 263 265 264 265 269 276 284 290 295 298 302 306 308 310 311 311
205 204 197 195 197 184 167 156 133 119 117 129 149 135 334 296 205 230 258 311 291 253 224 255 262 264 269 271 272 277 276 251 107 60 314 253 236 238 230 212 197 190 195 246 241 227 217 213 212 217 248 321 336 319 302 293 300 309 314 319 320 315 307 300 295 286 276 268 265 266 269 272 278 286 293 298 301 304 307 309 311 312 313 313 313
219 218 212 207 203 204 207 139 140 172 184 193 193 185 186 222 250 251 240 247 269 278 278 269 270 275 279 275 278 287 280 235 183 93 340 289 270 259 244 236 232 222 213 239 256 246 238 232 218 201 179 19 307 280 272 274 278 264 246 248 267 271 275 285 289 281 271 269 271 273 276 283 291 298 302 305 309 312 316 318 320 322 324 324 324
216 231 239 235 224 217 193 151 189 218 237 310 263 234 219 208 218 229 228 235 252 253 250 277 283 287 288 286 293 308 301 219 201 338 343 297 294 294 281 266 254 239 231 240 264 271 259 250 246 254 252 250 257 260 265 274 266 250 235 225 230 244 258 262 264 267 268 272 278 283 287 293 297 302 308 314 319 322 324 326 327 328 327 324 322
200 218 239 242 225 195 175 182 200 223 238 203 212 212 204 210 228 243 252 269 278 269 262 283 293 295 297 299 306 325 51 155 198 267 252 234 254 321 309 279 259 236 225 226 250 260 247 233 236 316 304 276 260 254 255 271 271 264 259 255 257 267 269 262 262 267 271 275 282 290 297 302 306 312 320 324 325 327 330 331 330 326 322 319 320
196 201 213 221 216 207 204 205 203 196 207 230 232 221 222 251 279 282 269 275 285 281 277 278 281 288 298 306 311 318 292 193 212 236 246 238 230 242 255 248 242 240 232 224 259 258 246 235 241 271 273 260 256 249 242 245 263 285 294 278 262 256 255 258 264 272 279 284 293 305 314 319 322 327 330 331 331 332 331 329 326 323 323 325 328
206 201 202 214 223 221 219 230 247 244 239 250 256 255 273 295 306 306 278 269 270 267 266 267 267 273 287 303 313 307 297 278 250 250 271 259 237 243 252 254 250 247 243 247 273 274 253 248 266 255 233 233 240 243 240 243 268 304 287 264 255 254 258 261 266 273 282 293 307 320 327 330 332 335 335 334 332 329 324 321 321 323 325 328 329
227 213 205 216 229 229 222 231 254 259 253 243 246 267 287 291 290 288 279 270 259 244 234 236 257 274 280 289 293 282 279 284 283 277 274 253 251 259 262 262 258 253 249 253 280 298 285 264 257 246 240 241 244 247 249 252 328 296 275 268 265 265 265 267 271 276 284 296 308 320 328 332 334 335 334 330 326 322 320 321 323 325 326 327 327
233 222 215 222 231 232 223 217 223 230 226 216 221 245 266 269 266 263 266 270 268 258 243 234 251 275 274 271 278 282 280 276 278 276 267 253 260 266 268 267 267 269 266 260 260 262 259 255 252 252 255 259 265 270 264 244 158 273 272 273 276 277 277 279 283 288 293 302 313 323 328 330 331 331 329 327 326 324 324 327 329 330 332 334 332
217 219 219 221 226 228 228 228 230 231 228 229 238 247 256 261 261 257 258 266 273 271 260 255 263 270 265 263 268 272 273 270 267 266 265 261 261 263 266 272 274 272 268 262 262 266 265 263 264 268 273 268 237 251 267 278 241 262 267 271 277 282 286 290 293 299 308 315 321 325 326 327 329 329 328 328 330 330 332 336 337 336 336 336 334
200 208 215 219 223 228 229 231 234 236 237 242 252 257 256 255 254 254 257 262 265 266 265 267 268 264 261 262 263 262 262 260 259 258 257 255 258 264 269 273 272 270 264 258 259 265 266 267 270 276 273 257 242 241 261 274 249 255 264 275 283 287 291 295 299 306 315 321 324 326 327 326 326 327 329 333 333 331 331 335 335 333 330 327 324
199 201 204 205 210 224 230 226 223 233 247 246 244 253 262 261 259 258 258 256 257 260 263 264 262 259 256 252 255 261 264 260 258 261 260 255 257 263 262 259 262 266 260 247 237 238 255 277 278 271 271 274 256 234 230 246 252 256 265 278 285 287 293 301 304 308 315 321 324 325 324 322 322 327 333 336 329 324 325 328 329 330 330 326 324
216 213 214 212 209 216 224 219 214 224 244 250 245 245 251 253 254 256 257 257 258 259 259 258 258 259 257 254 255 261 261 254 250 253 252 249 249 252 254 253 257 262 258 252 249 253 263 275 274 270 274 281 266 242 239 257 263 266 273 281 285 289 296 300 302 307 315 321 323 322 321 321 324 330 333 328 319 321 330 333 331 329 326 323 321
Height
1564 1565 1567 1570 1571 1572 1574 1575 1577 1579 1580 1582 1583 1583 1584 1585 1586 1586 1586 1587 1587 1587 1588 1588 1589 1590 1590 1591 1592 1593 1593 1594 1594 1595 1595 1596 1596 1597 1597 1598 1598 1599 1599 1600 1600 1601 1602 1602 1602 1603 1603 1603 1604 1605 1606 1607 1607 1607 1606 1606 1606 1606 1606 1606 1606 1605 1605 1605 1604 1603 1603 1602 1601 1601 1601 1601 1600 1600 1599 1598 1597 1596 1596 1595 1595
1563 1565 1566 1568 1570 1572 1573 1574 1576 1578 1579 1581 1581 1582 1583 1583 1584 1585 1585 1586 1586 1587 1588 1588 1589 1589 1590 1591 1591 1592 1592 1593 1594 1594 1595 1595 1595 1596 1596 1597 1597 1598 1598 1599 1599 1600 1600 1601 1601 1602 1602 1603 1603 1604 1605 1606 1606 1605 1605 1606 1606 1605 1605 1606 1606 1605 1604 1604 1604 1603 1602 1602 1601 1601 1601 1600 1600 1599 1598 1598 1597 1596 1596 1595 1594
1562 1564 1565 1567 1569 1570 1572 1573 1575 1576 1578 1580 1581 1581 1582 1582 1583 1584 1584 1585 1586 1587 1587 1588 1588 1589 1590 1591 1591 1591 1591 1592 1592 1593 1594 1594 1595 1595 1596 1596 1597 1597 1597 1598 1598 1599 1599 1600 1600 1601 1601 1602 1603 1603 1604 1604 1605 1605 1605 1605 1605 1605 1605 1605 1605 1604 1604 1603 1603 1603 1602 1601 1601 1601 1601 1600 1600 1599 1598 1597 1597 1596 1595 1595 1594
1561 1563 1564 1566 1568 1570 1571 1572 1574 1575 1576 1578 1580 1581 1582 1582 1583 1584 1584 1585 1585 1586 1586 1587 1587 1588 1589 1590 1590 1591 1591 1591 1591 1592 1593 1594 1594 1595 1595 1595 1595 1596 1597 1597 1597 1598 1599 1599 1599 1600 1601 1601 1602 1602 1603 1603 1604 1604 1604 1604 1605 1605 1604 1604 1604 1604 1603 1603 1603 1602 1601 1601 1601 1600 1600 1600 1599 1598 1597 1597 1596 1595 1595 1594 1593
1560 1561 1563 1565 1567 1569 1570 1572 1573 1574 1575 1577 1578 1580 1581 1582 1582 1583 1584 1584 1584 1585 1586 1586 1586 1587 1588 1589 1590 1590 1590 1590 1591 1591 1592 1593 1593 1594 1594 1594 1595 1595 1596 1596 1597 1598 1598 1598 1598 1599 1599 1600 1601 1602 1602 1603 1603 1603 1604 1604 1604 1604 1604 1604 1604 1604 1603 1603 1602 1602 1601 1601 1600 1600 1600 1599 1598 1597 1597 1596 1595 1594 1594 1593 1592
1559 1560 1562 1563 1565 1567 1569 1570 1572 1573 1575 1576 1578 1579 1580 1581 1582 1582 1583 1584 1584 1584 1585 1585 1585 1586 1587 1588 1588 1589 1589 1590 1590 1591 1591 1592 1593 1593 1593 1593 1594 1594 1595 1595 1596 1597 1597 1597 1598 1598 1599 1599 1600 1601 1601 1602 1602 1602 1603 1604 1604 1604 1604 1604 1604 1603 1603 1602 1602 1601 1601 1601 1600 1600 1599 1598 1597 1596 1595 1595 1594 1593 1593 1592 1591
1557 1559 1561 1563 1564 1566 1567 1569 1571 1572 1574 1575 1577 1578 1579 1581 1582 1582 1583 1583 1584 1584 1584 1585 1585 1585 1586 1587 1587 1588 1588 1589 1590 1590 1590 1591 1592 1592 1593 1593 1593 1594 1594 1594 1595 1596 1596 1597 1597 1598 1598 1599 1599 1600 1601 1601 1602 1602 1603 1603 1603 1603 1603 1603 1603 1603 1602 1602 1601 1601 1601 1600 1600 1599 1598 1597 1596 1596 1595 1594 1593 1593 1592 1591 1590
1556 1557 1559 1561 1563 1564 1566 1568 1569 1571 1572 1574 1576 1577 1579 1580 1581 1582 1582 1582 1583 1584 1584 1584 1584 1584 1585 1586 1586 1587 1587 1588 1589 1589 1589 1590 1591 1591 1592 1593 1593 1593 1594 1594 1594 1596 1596 1597 1597 1598 1598 1598 1599 1599 1600 1600 1601 1601 1602 1602 1602 1602 1602 1602 1601 1601 1601 1601 1600 1600 1599 1599 1598 1598 1597 1597 1596 1596 1595 1594 1593 1592 1591 1590 1589
1554 1555 1557 1559 1561 1562 1563 1566 1568 1569 1571 1572 1574 1576 1578 1579 1580 1581 1581 1581 1582 1583 1584 1584 1584 1584 1584 1585 1585 1586 1587 1587 1588 1588 1589 1589 1590 1590 1591 1592 1593 1593 1594 1594 1594 1594 1595 1596 1596 1597 1597 1597 1598 1599 1599 1599 1600 1601 1601 1600 1600 1600 1600 1600 1600 1600 1600 1599 1599 1599 1598 1598 1598 1597 1596 1596 1596 1595 1594 1593 1592 1590 1590 1588 1587
1552 1554 1556 1557 1559 1560 1561 1563 1565 1567 1568 1569 1571 1573 1574 1576 1578 1579 1580 1581 1581 1582 1582 1583 1583 1583 1583 1584 1585 1585 1585 1586 1586 1587 1588 1588 1589 1590 1590 1591 1592 1593 1593 1593 1593 1594 1594 1595 1596 1596 1596 1596 1596 1597 1598 1598 1599 1599 1599 1599 1599 1599 1599 1599 1599 1598 1598 1598 1598 1598 1597 1597 1597 1596 1595 1595 1594 1593 1592 1591 1590 1589 1588 1586 1585
1551 1553 1554 1555 1556 1557 1559 1561 1562 1564 1565 1567 1568 1570 1571 1573 1574 1576 1578 1579 1580 1580 1581 1581 1582 1583 1583 1583 1584 1584 1584 1584 1585 1585 1586 1587 1588 1589 1589 1590 1590 1591 1592 1592 1592 1593 1593 1594 1595 1595 1595 1595 1595 1596 1597 1597 1597 1597 1598 1598 1598 1598 1598 1597 1597 1597 1597 1597 1597 1596 1596 1596 1595 1595 1594 1593 1592 1591 1590 1589 1588 1587 1586 1584 1582
1549 1551 1552 1554 1555 1556 1557 1559 1560 1562 1564 1565 1566 1567 1568 1570 1573 1575 1576 1577 1577 1578 1578 1579 1580 1581 1583 1583 1582 1581 1582 1583 1583 1584 1585 1586 1587 1588 1588 1589 1589 1590 1590 1591 1591 1592 1593 1594 1595 1594 1594 1594 1594 1595 1595 1596 1596 1596 1596 1596 1596 1597 1596 1596 1596 1595 1595 1595 1595 1594 1594 1594 1593 1593 1592 1591 1589 1589 1588 1587 1587 1585 1584 1583 1581
1547 1548 1550 1551 1553 1554 1556 1557 1558 1560 1562 1562 1563 1564 1565 1567 1569 1572 1574 1576 1578 1577 1577 1577 1578 1579 1580 1579 1578 1579 1580 1581 1581 1582 1583 1584 1586 1587 1587 1588 1588 1589 1589 1590 1590 1591 1591 1592 1591 1591 1592 1593 1593 1593 1594 1594 1594 1594 1595 1595 1595 1595 1595 1594 1594 1593 1593 1593 1592 1592 1592 1592 1591 1591 1590 1589 1588 1587 1586 1585 1584 1583 1582 1581 1579
1546 1547 1548 1549 1551 1552 1553 1554 1556 1559 1560 1560 1561 1561 1563 1565 1566 1568 1571 1574 1577 1577 1576 1576 1576 1576 1577 1577 1577 1578 1579 1579 1580 1581 1582 1583 1584 1585 1586 1587 1587 1589 1589 1588 1587 1587 1588 1588 1588 1589 1591 1592 1592 1592 1593 1593 1593 1593 1593 1593 1593 1593 1593 1593 1593 1592 1592 1591 1591 1590 1590 1590 1590 1588 1588 1587 1586 1585 1584 1582 1581 1580 1579 1578 1577
1544 1545 1546 1547 1548 1549 1551 1552 1554 1556 1557 1558 1558 1559 1561 1563 1564 1566 1568 1570 1573 1574 1574 1574 1574 1575 1575 1575 1576 1577 1578 1579 1580 1580 1581 1582 1582 1583 1584 1585 1586 1587 1587 1585 1584 1585 1587 1587 1587 1589 1590 1590 1591 1591 1591 1593 1593 1592 1592 1592 1592 1591 1591 1591 1591 1590 1590 1590 1589 1589 1588 1588 1587 1586 1586 1585 1585 1584 1582 1580 1579 1578 1576 1575 1575
1543 1544 1545 1546 1547 1547 1549 1550 1551 1553 1554 1555 1556 1558 1559 1560 1562 1564 1565 1568 1569 1570 1571 1572 1573 1574 1573 1574 1574 1575 1576 1577 1578 1578 1580 1581 1581 1582 1582 1583 1584 1585 1584 1583 1583 1585 1586 1586 1587 1589 1589 1589 1589 1589 1590 1592 1592 1591 1591 1591 1591 1590 1590 1589 1589 1589 1588 1588 1588 1587 1587 1586 1585 1585 1584 1584 1583 1582 1580 1579 1578 1576 1575 1573 1573
1542 1543 1544 1544 1545 1546 1547 1548 1549 1550 1552 1553 1554 1555 1557 1558 1560 1561 1563 1565 1566 1567 1568 1570 1571 1571 1572 1572 1573 1574 1575 1575 1576 1577 1578 1579 1580 1580 1580 1581 1581 1581 1581 1582 1583 1584 1585 1586 1587 1588 1588 1588 1587 1587 1588 1589 1589 1589 1589 1589 1589 1589 1589 1588 1587 1587 1587 1586 1586 1586 1585 1584 1584 1583 1583 1582 1581 1579 1578 1577 1576 1575 1573 1572 1571
1542 1542 1543 1543 1544 1545 1546 1546 1547 1548 1549 1551 1552 1553 1554 1555 1557 1558 1561 1562 1563 1564 1565 1566 1568 1569 1569 1570 1571 1572 1573 1573 1574 1574 1575 1577 1577 1578 1578 1578 1579 1579 1580 1580 1582 1583 1584 1584 1584 1585 1585 1584 1584 1585 1585 1586 1586 1587 1587 1587 1587 1587 1586 1585 1585 1585 1584 1584 1584 1583 1583 1582 1581 1581 1580 1579 1579 1578 1577 1576 1575 1574 1572 1571 1570
1544 1544 1544 1544 1544 1545 1545 1545 1546 1546 1547 1548 1550 1550 1551 1552 1553 1555 1557 1558 1559 1560 1561 1563 1564 1565 1566 1567 1568 1569 1570 1570 1571 1572 1573 1574 1575 1575 1576 1576 1577 1578 1579 1579 1580 1581 1582 1582 1581 1582 1582 1581 1582 1583 1583 1584 1584 1584 1585 1585 1585 1584 1583 1583 1582 1582 1581 1581 1581 1580 1580 1580 1579 1578 1578 1578 1577 1576 1575 1574 1573 1572 1571 1570 1569
1544 1545 1545 1545 1545 1546 1545 1546 1546 1546 1546 1547 1547 1547 1548 1549 1550 1552 1553 1555 1556 1557 1557 1559 1561 1562 1564 1565 1566 1566 1567 1567 1568 1569 1570 1571 1572 1573 1574 1574 1575 1576 1577 1577 1578 1579 1580 1580 1580 1580 1580 1580 1580 1581 1581 1582 1582 1582 1582 1582 1582 1581 1581 1581 1580 1580 1579 1579 1578 1578 1578 1577 1577 1577 1577 1577 1576 1575 1574 1573 1572 1571 1570 1569 1568
1544 1545 1544 1544 1545 1546 1546 1546 1546 1546 1546 1546 1546 1547 1547 1548 1549 1550 1551 1553 1553 1554 1554 1556 1557 1559 1561 1562 1563 1564 1564 1565 1565 1567 1568 1569 1570 1571 1572 1572 1572 1573 1574 1575 1576 1578 1579 1579 1579 1578 1578 1579 1579 1579 1579 1580 1580 1580 1580 1580 1579 1579 1578 1578 1578 1577 1577 1577 1576 1576 1576 1576 1576 1576 1577 1577 1575 1573 1572 1572 1571 1570 1569 1568 1567
1545 1545 1545 1545 1546 1546 1546 1547 1547 1548 1548 1548 1548 1548 1549 1549 1548 1549 1550 1551 1551 1551 1552 1553 1554 1556 1557 1559 1560 1561 1562 1562 1563 1564 1565 1566 1567 1569 1570 1570 1570 1571 1572 1573 1574 1576 1577 1577 1577 1577 1577 1577 1577 1577 1577 1578 1578 1578 1578 1577 1577 1576 1576 1576 1576 1575 1575 1575 1575 1575 1574 1574 1575 1575 1575 1574 1573 1572 1571 1571 1570 1569 1568 1568 1567
1547 1546 1546 1547 1547 1547 1548 1548 1548 1549 1549 1549 1550 1550 1550 1550 1550 1549 1550 1550 1550 1551 1551 1552 1553 1554 1555 1556 1557 1558 1559 1560 1560 1561 1563 1564 1565 1567 1568 1568 1568 1568 1569 1570 1571 1573 1575 1575 1574 1575 1575 1575 1575 1575 1575 1575 1576 1576 1575 1575 1574 1574 1574 1574 1574 1573 1573 1573 1573 1573 1573 1573 1573 1573 1572 1571 1571 1570 1570 1569 1568 1567 1567 1567 1566
1548 1548 1548 1548 1549 1549 1549 1549 1550 1550 1550 1551 1551 1551 1551 1551 1551 1551 1551 1551 1551 1552 1552 1553 1553 1553 1554 1555 1556 1557 1557 1557 1557 1558 1560 1562 1563 1565 1566 1566 1566 1566 1567 1568 1569 1571 1572 1572 1572 1572 1572 1572 1572 1572 1573 1573 1573 1573 1573 1573 1573 1572 1572 1572 1572 1572 1572 1572 1572 1572 1572 1572 1572 1570 1570 1569 1569 1569 1568 1567 1566 1565 1565 1565 1564
1549 1549 1549 1550 1550 1551 1551 1551 1551 1551 1551 1552 1552 1552 1553 1553 1553 1553 1553 1553 1553 1553 1553 1554 1554 1554 1555 1555 1555 1556 1557 1557 1557 1557 1558 1560 1561 1563 1564 1564 1564 1564 1564 1565 1566 1568 1569 1570 1570 1570 1570 1570 1570 1570 1571 1571 1571 1571 1571 1571 1571 1571 1570 1570 1570 1570 1570 1571 1571 1571 1571 1571 1570 1569 1568 1568 1567 1567 1566 1565 1564 1563 1563 1562 1561
1549 1550 1550 1551 1551 1552 1553 1553 1553 1553 1553 1553 1553 1553 1554 1554 1554 1554 1555 1555 1555 1555 1555 1556 1556 1556 1556 1556 1556 1556 1557 1557 1558 1557 1558 1558 1559 1561 1562 1563 1563 1563 1563 1563 1564 1565 1566 1567 1568 1568 1568 1568 1568 1569 1569 1569 1569 1569 1569 1569 1569 1569 1569 1569 1569 1569 1569 1569 1569 1569 1569 1569 1568 1568 1567 1567 1566 1565 1564 1563 1562 1561 1560 1560 1558
1550 1551 1551 1552 1552 1553 1553 1554 1554 1554 1554 1554 1553 1554 1554 1554 1554 1554 1554 1555 1555 1556 1556 1557 1557 1557 1557 1557 1557 1556 1557 1558 1558 1558 1558 1558 1559 1560 1561 1561 1562 1562 1563 1563 1563 1563 1564 1565 1566 1566 1566 1566 1566 1567 1568 1568 1567 1567 1567 1567 1567 1567 1568 1568 1568 1567 1567 1568 1568 1568 1568 1567 1566 1566 1566 1566 1565 1564 1562 1561 1560 1559 1558 1558 1556
1551 1552 1552 1553 1553 1553 1554 1554 1554 1554 1554 1554 1553 1553 1553 1554 1554 1554 1555 1555 1555 1556 1556 1556 1557 1557 1557 1557 1557 1556 1557 1558 1559 1559 1559 1559 1560 1560 1561 1561 1561 1562 1562 1562 1562 1562 1563 1564 1564 1565 1565 1565 1565 1566 1566 1566 1566 1566 1566 1566 1567 1567 1567 1567 1567 1566 1566 1567 1567 1567 1566 1565 1565 1565 1565 1564 1564 1562 1561 1560 1559 1558 1557 1556 1555
1552 1553 1554 1554 1555 1555 1555 1555 1554 1554 1554 1553 1553 1553 1553 1554 1554 1555 1555 1555 1555 1556 1556 1556 1556 1556 1557 1557 1557 1556 1557 1558 1559 1559 1559 1560 1560 1560 1560 1560 1561 1560 1561 1561 1561 1561 1562 1562 1563 1563 1563 1564 1564 1564 1565 1565 1565 1566 1566 1567 1567 1566 1566 1566 1564 1564 1565 1566 1565 1565 1564 1564 1563 1563 1563 1562 1561 1560 1559 1558 1558 1557 1556 1555 1554
1553 1554 1554 1554 1555 1555 1555 1555 1554 1554 1553 1553 1553 1553 1553 1553 1554 1554 1554 1555 1555 1556 1556 1556 1556 1556 1557 1557 1557 1557 1558 1558 1559 1559 1559 1559 1559 1559 1559 1559 1559 1559 1559 1559 1559 1560 1561 1561 1561 1562 1563 1564 1564 1564 1565 1565 1565 1566 1567 1567 1566 1566 1565 1564 1563 1563 1564 1564 1563 1562 1562 1562 1562 1561 1560 1559 1558 1558 1557 1557 1557 1556 1555 1554 1553
1552 1553 1552 1553 1554 1553 1553 1553 1553 1553 1553 1553 1553 1553 1553 1553 1554 1554 1554 1554 1554 1555 1555 1555 1555 1556 1556 1557 1557 1557 1557 1558 1558 1558 1558 1558 1558 1558 1558 1558 1558 1558 1558 1558 1559 1559 1559 1560 1561 1561 1562 1564 1564 1564 1564 1565 1564 1564 1565 1566 1565 1564 1563 1563 1562 1562 1562 1561 1561 1560 1560 1560 1560 1559 1558 1558 1557 1556 1556 1556 1555 1554 1554 1553 1552
1552 1551 1551 1552 1553 1553 1552 1552 1552 1553 1553 1553 1553 1553 1553 1554 1554 1554 1554 1554 1554 1554 1554 1554 1555 1555 1555 1556 1556 1556 1556 1556 1557 1557 1557 1557 1557 1557 1557 1557 1556 1557 1557 1557 1558 1558 1558 1559 1560 1561 1562 1562 1562 1562 1562 1562 1562 1562 1563 1564 1563 1561 1560 1560 1560 1561 1560 1559 1559 1559 1558 1558 1558 1557 1557 1556 1556 1555 1555 1554 1553 1553 1552 1551 1551
1551 1551 1551 1551 1552 1552 1552 1552 1552 1552 1552 1552 1553 1554 1554 1554 1554 1554 1554 1554 1554 1554 1554 1554 1554 1554 1554 1554 1555 1555 1555 1555 1555 1556 1556 1556 1556 1556 1556 1556 1556 1556 1556 1557 1557 1558 1558 1560 1561 1561 1561 1561 1560 1560 1561 1561 1560 1560 1561 1562 1561 1559 1559 1558 1558 1559 1558 1557 1557 1557 1557 1556 1556 1556 1556 1556 1555 1554 1554 1553 1552 1552 1551 1550 1549
1550 1550 1550 1550 1551 1551 1551 1551 1551 1551 1551 1552 1552 1553 1554 1554 1554 1554 1554 1553 1553 1553 1553 1554 1553 1553 1553 1553 1553 1553 1554 1554 1554 1554 1555 1555 1555 1555 1555 1556 1556 1556 1556 1556 1557 1558 1558 1559 1559 1560 1560 1559 1559 1559 1559 1559 1559 1559 1559 1560 1559 1558 1557 1557 1557 1557 1556 1556 1556 1556 1556 1555 1555 1555 1555 1555 1554 1553 1552 1552 1551 1550 1549 1548 1547
1550 1550 1550 1550 1550 1550 1550 1550 1550 1550 1551 1551 1552 1552 1553 1554 1554 1555 1554 1554 1553 1553 1553 1553 1553 1553 1553 1553 1552 1552 1552 1552 1553 1553 1553 1554 1554 1555 1555 1555 1555 1556 1557 1557 1557 1557 1557 1557 1557 1557 1557 1556 1556 1557 1557 1557 1557 1557 1557 1557 1556 1556 1556 1556 1556 1555 1554 1555 1555 1555 1555 1555 1555 1554 1554 1553 1552 1551 1551 1550 1549 1548 1547 1546 1544
1550 1550 1550 1550 1550 1550 1550 1550 1550 1550 1550 1551 1551 1552 1552 1553 1554 1555 1555 1555 1554 1554 1553 1552 1553 1553 1552 1552 1552 1552 1552 1552 1552 1552 1552 1553 1553 1554 1555 1555 1555 1556 1557 1556 1556 1556 1556 1556 1556 1556 1555 1554 1555 1555 1555 1555 1555 1556 1556 1555 1555 1554 1555 1555 1554 1554 1554 1554 1555 1554 1554 1553 1553 1552 1551 1551 1550 1549 1549 1547 1546 1545 1545 1543 1542
1550 1550 1550 1550 1550 1550 1550 1550 1550 1550 1550 1550 1551 1551 1552 1553 1553 1554 1555 1555 1555 1554 1554 1553 1553 1552 1551 1550 1551 1552 1552 1552 1552 1552 1552 1552 1553 1554 1554 1555 1555 1555 1555 1554 1554 1554 1554 1554 1555 1555 1554 1554 1554 1554 1554 1554 1554 1554 1554 1553 1553 1554 1554 1554 1554 1554 1553 1553 1553 1552 1551 1551 1550 1549 1548 1548 1547 1546 1545 1544 1544 1543 1542 1541 1540
1548 1548 1549 1549 1549 1549 1550 1550 1550 1550 1550 1550 1551 1551 1552 1553 1553 1554 1554 1554 1554 1554 1555 1555 1554 1552 1551 1550 1550 1552 1553 1553 1552 1552 1552 1552 1552 1553 1553 1553 1554 1554 1553 1553 1553 1553 1552 1553 1553 1553 1553 1553 1552 1553 1553 1553 1553 1553 1553 1553 1553 1554 1554 1553 1553 1552 1551 1551 1550 1549 1549 1548 1547 1546 1545 1545 1545 1544 1543 1542 1542 1541 1540 1539 1538
1547 1547 1548 1548 1549 1549 1549 1550 1550 1550 1550 1550 1551 1552 1552 1552 1553 1553 1554 1554 1554 1554 1555 1555 1554 1552 1551 1551 1550 1551 1553 1553 1552 1551 1552 1552 1552 1551 1551 1552 1552 1552 1551 1551 1551 1551 1551 1552 1552 1551 1552 1552 1552 1552 1552 1552 1552 1552 1552 1552 1553 1553 1552 1552 1551 1549 1549 1548 1547 1547 1546 1545 1544 1544 1544 1544 1543 1542 1541 1541 1540 1538 1537 1536 1535
1546 1546 1547 1547 1547 1548 1549 1549 1549 1550 1550 1550 1551 1551 1551 1552 1552 1552 1553 1553 1554 1554 1554 1553 1552 1551 1551 1551 1550 1550 1552 1553 1552 1551 1551 1551 1550 1550 1551 1551 1550 1550 1550 1550 1549 1549 1550 1550 1550 1550 1551 1552 1552 1552 1552 1551 1551 1551 1551 1552 1552 1552 1551 1550 1549 1548 1546 1545 1544 1544 1543 1542 1542 1543 1543 1542 1541 1540 1539 1538 1537 1535 1534 1533 1531
1545 1545 1546 1546 1547 1547 1547 1548 1549 1549 1549 1550 1550 1550 1551 1551 1551 1551 1552 1552 1552 1553 1553 1552 1550 1550 1550 1549 1548 1548 1550 1551 1550 1550 1550 1549 1548 1548 1549 1549 1549 1549 1549 1548 1548 1548 1549 1548 1549 1549 1550 1551 1551 1551 1550 1550 1550 1549 1549 1549 1549 1549 1549 1548 1546 1545 1543 1542 1542 1542 1541 1541 1541 1541 1540 1539 1538 1537 1536 1535 1534 1532 1531 1530 1529
1545 1545 1545 1545 1546 1546 1547 1548 1548 1548 1548 1548 1548 1549 1549 1550 1549 1550 1550 1550 1550 1551 1551 1550 1549 1548 1548 1547 1547 1547 1548 1548 1549 1550 1549 1548 1547 1546 1546 1547 1547 1547 1547 1547 1547 1547 1547 1547 1548 1548 1549 1549 1549 1548 1548 1547 1547 1546 1546 1546 1546 1546 1546 1545 1543 1541 1541 1541 1540 1540 1540 1540 1539 1538 1537 1536 1535 1534 1533 1532 1531 1530 1529 1528 1527
1543 1544 1544 1544 1544 1545 1546 1546 1546 1546 1547 1547 1547 1547 1547 1547 1548 1548 1548 1549 1549 1549 1550 1550 1548 1546 1546 1546 1546 1546 1547 1547 1549 1549 1548 1547 1546 1546 1545 1545 1544 1544 1545 1546 1546 1545 1545 1546 1547 1547 1547 1547 1546 1545 1545 1545 1544 1544 1545 1545 1545 1544 1544 1542 1540 1540 1539 1539 1539 1539 1538 1538 1537 1536 1535 1533 1532 1531 1530 1529 1529 1528 1527 1525 1524
1539 1542 1543 1543 1543 1543 1544 1544 1544 1545 1545 1544 1545 1546 1546 1546 1546 1547 1547 1548 1549 1549 1549 1550 1549 1546 1545 1544 1545 1546 1545 1546 1546 1546 1545 1545 1546 1545 1544 1543 1543 1543 1544 1544 1544 1543 1543 1545 1545 1545 1546 1545 1544 1543 1543 1543 1543 1543 1543 1543 1542 1541 1541 1540 1539 1538 1537 1537 1537 1537 1536 1535 1534 1533 1532 1531 1530 1529 1528 1527 1526 1526 1524 1523 1522
1536 1538 1540 1541 1541 1542 1542 1542 1543 1543 1542 1543 1543 1544 1545 1545 1545 1545 1545 1547 1547 1547 1547 1548 1548 1546 1545 1544 1545 1545 1545 1544 1544 1544 1544 1544 1545 1543 1542 1541 1542 1542 1542 1543 1542 1542 1542 1543 1543 1543 1542 1541 1540 1540 1541 1542 1542 1542 1541 1540 1539 1539 1539 1539 1538 1537 1536 1535 1535 1535 1533 1532 1531 1530 1529 1528 1528 1527 1526 1525 1524 1523 1522 1521 1520
1534 1536 1538 1539 1540 1540 1541 1541 1542 1541 1541 1541 1542 1543 1544 1545 1544 1543 1544 1544 1544 1544 1544 1544 1545 1545 1544 1544 1544 1543 1543 1543 1543 1543 1543 1544 1543 1541 1540 1540 1541 1541 1541 1541 1541 1541 1542 1541 1540 1540 1539 1539 1539 1539 1540 1540 1541 1540 1538 1537 1537 1538 1538 1537 1536 1535 1534 1533 1533 1532 1531 1530 1529 1529 1528 1527 1526 1525 1524 1523 1522 1521 1520 1519 1518
1532 1534 1536 1537 1539 1539 1539 1540 1540 1539 1539 1540 1540 1541 1542 1542 1542 1543 1543 1542 1541 1541 1542 1542 1543 1543 1543 1543 1543 1542 1542 1542 1542 1542 1542 1543 1542 1540 1539 1539 1539 1540 1540 1540 1540 1540 1540 1539 1538 1537 1537 1537 1538 1539 1538 1539 1540 1538 1535 1535 1536 1536 1535 1534 1533 1533 1532 1532 1531 1530 1529 1528 1527 1527 1526 1525 1524 1523 1522 1521 1520 1520 1519 1518 1518
1531 1533 1535 1536 1537 1538 1538 1538 1538 1537 1537 1538 1538 1539 1540 1541 1541 1542 1542 1541 1540 1540 1541 1541 1541 1541 1542 1542 1541 1541 1541 1541 1541 1541 1541 1541 1541 1539 1538 1538 1539 1538 1538 1538 1539 1539 1538 1537 1536 1536 1536 1536 1537 1537 1537 1538 1538 1535 1533 1533 1534 1533 1532 1532 1531 1530 1530 1530 1529 1528 1528 1527 1526 1525 1524 1523 1522 1521 1521 1520 1520 1519 1519 1518 1518
1530 1531 1532 1534 1535 1536 1536 1536 1536 1536 1536 1537 1537 1538 1538 1539 1539 1539 1539 1539 1539 1539 1540 1540 1540 1540 1540 1540 1540 1540 1539 1539 1539 1539 1539 1539 1539 1538 1538 1538 1538 1537 1536 1537 1537 1537 1537 1536 1535 1535 1535 1535 1535 1535 1535 1536 1535 1532 1531 1531 1532 1531 1530 1530 1529 1529 1528 1528 1527 1527 1526 1525 1524 1524 1523 1522 1521 1521 1520 1520 1520 1519 1519 1518 1517
1526 1528 1530 1531 1533 1533 1534 1534 1535 1535 1535 1536 1537 1537 1537 1538 1538 1537 1537 1538 1538 1538 1538 1538 1538 1538 1538 1538 1538 1538 1537 1537 1537 1537 1537 1537 1538 1537 1537 1537 1536 1535 1534 1534 1534 1534 1534 1534 1534 1533 1533 1533 1532 1533 1533 1532 1531 1530 1529 1530 1530 1529 1529 1528 1528 1527 1527 1526 1526 1525 1524 1523 1523 1522 1521 1521 1520 1520 1520 1520 1519 1518 1517 1516 1515
1525 1527 1529 1530 1530 1531 1531 1531 1532 1534 1534 1535 1535 1535 1535 1536 1536 1536 1536 1536 1536 1536 1536 1536 1536 1536 1536 1536 1536 1536 1536 1535 1535 1535 1535 1535 1536 1536 1535 1535 1534 1533 1532 1532 1532 1532 1533 1532 1532 1531 1531 1531 1530 1531 1530 1529 1528 1528 1528 1528 1528 1527 1527 1527 1526 1526 1525 1525 1524 1524 1523 1522 1521 1521 1520 1520 1520 1519 1519 1518 1518 1517 1516 1515 1514